Location: Bonningues
(50.7927°N, 2.0150°E)
Time: 16:26:58
(UTC+00:00)

Cosmos 1570 Rocket - Pass Details

Date: 08 August 2020
Orbit: 762 x 789 km, 74.1° (Epoch: 18 September)

Event Time Altitude Azimuth Distance (km) Brightness Sun altitude
Rises 21:43:04 0° 337° (NNW) 3,268 8.9 -17.2°
Reaches altitude 10° 21:45:31 10° 342° (NNW) 2,340 7.7 -17.4°
Maximum altitude 21:50:44 54° 60° (ENE) 952 4.4 -17.9°
Enters shadow 21:53:13 29° 123° (ESE) 1,394 4.8 -18.1°
